Location: Czekanka
(50.4925°N, 19.2643°E)
Time: 22:07:25
(UTC+00:00)

Cosmos 2263 Rocket - Pass Details

Date: 23 September 2024
Orbit: 821 x 849 km, 71.0° (Epoch: 14 October)

Event Time Altitude Azimuth Distance (km) Brightness Sun altitude
Rises 03:14:04 0° 195° (SSW) 3,367 5.0 -12.9°
Reaches altitude 10° 03:16:31 10° 192° (SSW) 2,441 4.3 -12.6°
Maximum altitude 03:22:01 62° 113° (ESE) 947 2.7 -11.7°
Drops below altitude 10° 03:27:37 10° 35° (NE) 2,476 5.4 -10.9°
Sets 03:30:06 0° 32° (NNE) 3,418 6.1 -10.5°
